User: anonymous   Login
Location: Unspecified
(0.0000°N, 0.0000°E)
Time: 01:22:51
(UTC+00:00)
Language:

AIST 1 - Orbit

View from above orbital plane
View from above orbital plane
View from above satellite
View from above satellite

Ground track
Ground track

The orbit data is extracted from the following two-line orbital elements,

1 39492U 13078C   17266.59451801 +.00000186 +00000-0 +17693-4 0  9996
2 39492 082.4166 088.4173 0021448 070.5904 289.7629 14.87626951200577
Epoch (UTC): 23 September 2017 14:16:06
Eccentricity: 0.0021448
inclination: 82.4166°
perigee height: 590 km
apogee height: 620 km
right ascension of ascending node: 88.4173°
argument of perigee: 70.5904°
revolutions per day: 14.87626951
mean anomaly at epoch: 289.7629°
orbit number at epoch: 20057

The dashed part of the orbit path shows where the satellite is in the earth's shadow,  

DLR